Location: Ariel
(45.9570°N, 122.5700°W)
Time: 15:37:01
(UTC-07:00)

Altair - Pass Details

Date: 22 July 2019
Orbit: 1501 x 1683 km, 47.2° (Epoch: 20 August)

Event Time Altitude Azimuth Distance (km) Brightness Sun altitude
Rises 10:52:23 0° 194° (SSW) 4,665 10.2 50.9°
Reaches altitude 10° 10:56:07 10° 182° (S) 3,667 9.9 51.4°
Maximum altitude 11:03:07 25° 131° (SE) 2,660 10.1 52.5°
Drops below altitude 10° 11:10:05 10° 81° (E) 3,655 10.0 53.5°
Sets 11:13:46 0° 69° (ENE) 4,647 10.3 54.0°
